QPF
0.00 0.00 0.00 0.00 0.00 0.00 0.00 0.00 0.00 0.00 0.00 0.00 0.00 0.00 0.00 0.00 0.00 0.00 0.00 0.00 0.00 0.00 0.00 0.00 0.00 0.00 0.00 0.00 0.00 0.00 0.00 0.00 0.00 0.00 0.00 0.00 0.00 0.00 0.00 0.00 0.00 0.00 0.00 0.00 0.00 0.02 0.03 0.01 0.01 0.06 0.06 0.01 0.00 0.00
0.00 0.00 0.00 0.00 0.00 0.00 0.00 0.00 0.00 0.00 0.00 0.00 0.00 0.00 0.00 0.00 0.00 0.00 0.00 0.00 0.00 0.00 0.00 0.00 0.00 0.00 0.00 0.00 0.00 0.00 0.00 0.00 0.00 0.00 0.00 0.00 0.00 0.00 0.00 0.00 0.00 0.00 0.00 0.00 0.00 0.00 0.01 0.00 0.01 0.03 0.02 0.01 0.00 0.00
0.00 0.00 0.00 0.00 0.00 0.00 0.00 0.00 0.00 0.00 0.00 0.00 0.00 0.00 0.00 0.00 0.00 0.00 0.00 0.00 0.00 0.00 0.00 0.00 0.00 0.00 0.00 0.00 0.00 0.00 0.00 0.00 0.00 0.00 0.00 0.00 0.00 0.00 0.00 0.00 0.00 0.00 0.00 0.00 0.00 0.00 0.00 0.00 0.01 0.00 0.00 0.00 0.00 0.00
0.00 0.00 0.00 0.00 0.00 0.00 0.00 0.00 0.00 0.00 0.00 0.00 0.00 0.00 0.00 0.00 0.00 0.00 0.00 0.00 0.00 0.00 0.00 0.00 0.00 0.00 0.00 0.00 0.00 0.00 0.00 0.00 0.00 0.00 0.01 0.00 0.00 0.00 0.00 0.00 0.00 0.00 0.00 0.00 0.00 0.00 0.00 0.00 0.00 0.00 0.00 0.00 0.00 0.00
0.00 0.00 0.00 0.00 0.00 0.00 0.00 0.00 0.00 0.00 0.00 0.00 0.00 0.00 0.00 0.00 0.00 0.00 0.00 0.00 0.00 0.00 0.00 0.00 0.00 0.00 0.00 0.00 0.00 0.00 0.00 0.00 0.00 0.01 0.01 0.00 0.00 0.00 0.00 0.00 0.00 0.00 0.00 0.00 0.00 0.00 0.00 0.00 0.00 0.00 0.00 0.00 0.00 0.00
0.00 0.00 0.00 0.00 0.00 0.00 0.00 0.00 0.00 0.00 0.00 0.00 0.00 0.00 0.00 0.00 0.00 0.00 0.00 0.00 0.00 0.00 0.00 0.00 0.00 0.00 0.00 0.00 0.00 0.00 0.00 0.00 0.01 0.01 0.00 0.00 0.00 0.00 0.00 0.00 0.00 0.00 0.00 0.00 0.00 0.00 0.00 0.00 0.00 0.00 0.00 0.00 0.00 0.00
0.00 0.00 0.00 0.00 0.00 0.00 0.00 0.00 0.00 0.00 0.00 0.00 0.00 0.00 0.00 0.00 0.00 0.00 0.00 0.00 0.00 0.00 0.00 0.00 0.00 0.00 0.00 0.00 0.00 0.00 0.00 0.00 0.00 0.00 0.00 0.00 0.00 0.00 0.00 0.00 0.00 0.00 0.00 0.00 0.00 0.00 0.00 0.00 0.00 0.00 0.00 0.00 0.00 0.00
0.00 0.00 0.00 0.00 0.00 0.00 0.00 0.00 0.00 0.00 0.00 0.00 0.00 0.00 0.00 0.00 0.00 0.00 0.00 0.00 0.00 0.00 0.00 0.00 0.00 0.00 0.00 0.00 0.00 0.00 0.00 0.00 0.00 0.00 0.00 0.00 0.00 0.00 0.00 0.00 0.00 0.00 0.00 0.00 0.00 0.00 0.00 0.00 0.00 0.00 0.00 0.00 0.00 0.00
0.00 0.00 0.00 0.00 0.00 0.00 0.00 0.00 0.00 0.00 0.00 0.00 0.00 0.00 0.00 0.00 0.00 0.00 0.00 0.00 0.00 0.00 0.00 0.00 0.00 0.00 0.00 0.00 0.00 0.00 0.00 0.00 0.00 0.00 0.00 0.00 0.00 0.00 0.00 0.00 0.00 0.00 0.00 0.00 0.00 0.00 0.00 0.00 0.00 0.00 0.00 0.00 0.00 0.00
0.00 0.00 0.00 0.00 0.00 0.00 0.00 0.00 0.00 0.00 0.00 0.00 0.00 0.00 0.00 0.00 0.00 0.00 0.00 0.00 0.00 0.00 0.00 0.00 0.00 0.00 0.00 0.00 0.00 0.00 0.00 0.00 0.00 0.00 0.00 0.00 0.00 0.00 0.00 0.00 0.00 0.00 0.00 0.00 0.00 0.00 0.00 0.00 0.00 0.00 0.00 0.00 0.00 0.00
0.00 0.00 0.00 0.00 0.00 0.00 0.00 0.00 0.00 0.00 0.00 0.00 0.00 0.00 0.00 0.00 0.00 0.00 0.00 0.00 0.00 0.00 0.00 0.00 0.00 0.00 0.00 0.00 0.00 0.00 0.00 0.00 0.00 0.00 0.00 0.00 0.00 0.00 0.00 0.00 0.00 0.00 0.00 0.00 0.00 0.00 0.00 0.00 0.00 0.00 0.00 0.00 0.00 0.00
0.00 0.00 0.00 0.00 0.00 0.00 0.00 0.00 0.00 0.00 0.00 0.00 0.01 0.00 0.00 0.00 0.00 0.00 0.00 0.00 0.00 0.00 0.00 0.00 0.00 0.00 0.00 0.00 0.00 0.00 0.00 0.00 0.00 0.00 0.00 0.00 0.00 0.00 0.00 0.00 0.00 0.00 0.00 0.00 0.00 0.00 0.00 0.00 0.00 0.00 0.00 0.00 0.00 0.00
0.00 0.00 0.00 0.00 0.00 0.00 0.00 0.00 0.01 0.01 0.01 0.08 0.02 0.00 0.00 0.00 0.00 0.00 0.00 0.00 0.00 0.00 0.00 0.00 0.00 0.00 0.00 0.00 0.00 0.00 0.00 0.00 0.00 0.00 0.00 0.00 0.00 0.00 0.00 0.00 0.00 0.00 0.00 0.00 0.00 0.00 0.00 0.00 0.00 0.00 0.00 0.00 0.00 0.00
0.00 0.00 0.00 0.00 0.00 0.00 0.01 0.01 0.04 0.03 0.08 0.15 0.03 0.01 0.00 0.00 0.00 0.00 0.00 0.00 0.00 0.00 0.00 0.00 0.00 0.00 0.00 0.00 0.00 0.00 0.00 0.00 0.00 0.00 0.00 0.00 0.00 0.00 0.00 0.00 0.00 0.00 0.00 0.00 0.00 0.00 0.00 0.00 0.00 0.00 0.00 0.00 0.00 0.01
0.00 0.00 0.00 0.00 0.00 0.01 0.01 0.02 0.16 0.09 0.14 0.18 0.05 0.00 0.00 0.00 0.00 0.00 0.00 0.00 0.00 0.00 0.00 0.01 0.01 0.00 0.00 0.00 0.00 0.00 0.00 0.00 0.00 0.00 0.00 0.00 0.00 0.00 0.00 0.00 0.00 0.00 0.00 0.00 0.00 0.00 0.00 0.00 0.00 0.00 0.00 0.00 0.00 0.01
0.00 0.02 0.01 0.00 0.00 0.02 0.03 0.15 0.30 0.23 0.29 0.21 0.06 0.00 0.00 0.00 0.00 0.00 0.00 0.00 0.01 0.00 0.03 0.07 0.05 0.01 0.00 0.00 0.00 0.00 0.00 0.00 0.00 0.00 0.00 0.00 0.00 0.00 0.00 0.00 0.00 0.00 0.00 0.00 0.00 0.00 0.00 0.00 0.00 0.00 0.00 0.00 0.00 0.01
0.03 0.05 0.02 0.00 0.01 0.05 0.16 0.32 0.30 0.33 0.29 0.14 0.01 0.00 0.00 0.00 0.00 0.00 0.00 0.00 0.03 0.03 0.09 0.11 0.07 0.02 0.00 0.00 0.00 0.00 0.00 0.00 0.00 0.00 0.00 0.00 0.00 0.00 0.00 0.00 0.00 0.00 0.00 0.00 0.00 0.00 0.00 0.00 0.00 0.00 0.00 0.00 0.01 0.01
0.07 0.03 0.02 0.05 0.13 0.32 0.35 0.30 0.29 0.34 0.17 0.02 0.00 0.00 0.00 0.00 0.00 0.00 0.00 0.03 0.05 0.08 0.12 0.11 0.08 0.03 0.00 0.00 0.00 0.00 0.00 0.00 0.00 0.00 0.00 0.00 0.00 0.00 0.00 0.00 0.00 0.00 0.00 0.00 0.00 0.00 0.00 0.00 0.00 0.00 0.00 0.00 0.00 0.01
0.11 0.09 0.12 0.12 0.24 0.39 0.37 0.33 0.21 0.15 0.03 0.00 0.00 0.00 0.00 0.00 0.00 0.00 0.01 0.04 0.06 0.11 0.14 0.11 0.06 0.02 0.00 0.00 0.00 0.00 0.00 0.00 0.00 0.00 0.00 0.00 0.00 0.00 0.00 0.00 0.00 0.00 0.00 0.00 0.00 0.00 0.00 0.00 0.00 0.00 0.00 0.00 0.01 0.01
0.13 0.08 0.05 0.07 0.21 0.28 0.30 0.25 0.12 0.05 0.03 0.00 0.00 0.00 0.00 0.00 0.00 0.00 0.02 0.07 0.11 0.13 0.09 0.04 0.01 0.00 0.03 0.03 0.01 0.00 0.00 0.00 0.00 0.00 0.00 0.00 0.00 0.00 0.00 0.00 0.00 0.00 0.00 0.00 0.00 0.00 0.00 0.00 0.00 0.00 0.00 0.01 0.01 0.01
0.04 0.01 0.01 0.04 0.14 0.16 0.20 0.14 0.10 0.06 0.02 0.00 0.00 0.00 0.00 0.00 0.00 0.00 0.01 0.07 0.11 0.07 0.01 0.00 0.01 0.03 0.05 0.03 0.00 0.00 0.00 0.00 0.00 0.00 0.00 0.00 0.00 0.00 0.00 0.00 0.00 0.00 0.00 0.00 0.00 0.00 0.00 0.00 0.00 0.00 0.00 0.01 0.01 0.01
0.04 0.02 0.02 0.04 0.11 0.15 0.13 0.08 0.05 0.03 0.03 0.02 0.00 0.00 0.00 0.00 0.00 0.00 0.03 0.06 0.04 0.00 0.00 0.03 0.05 0.05 0.04 0.02 0.02 0.03 0.02 0.01 0.00 0.00 0.00 0.00 0.00 0.00 0.00 0.00 0.00 0.00 0.00 0.00 0.00 0.00 0.00 0.00 0.00 0.00 0.00 0.00 0.01 0.01
0.03 0.02 0.04 0.05 0.06 0.07 0.04 0.01 0.02 0.03 0.03 0.02 0.01 0.01 0.02 0.02 0.01 0.01 0.02 0.01 0.00 0.00 0.03 0.06 0.06 0.04 0.03 0.03 0.03 0.03 0.03 0.02 0.01 0.01 0.00 0.00 0.00 0.00 0.00 0.00 0.00 0.00 0.00 0.00 0.00 0.00 0.00 0.00 0.01 0.00 0.00 0.01 0.01 0.01
0.01 0.01 0.01 0.02 0.03 0.02 0.01 0.00 0.00 0.00 0.01 0.01 0.02 0.04 0.04 0.02 0.01 0.01 0.01 0.00 0.00 0.01 0.02 0.02 0.01 0.00 0.00 0.00 0.01 0.02 0.03 0.02 0.01 0.00 0.00 0.00 0.00 0.00 0.00 0.00 0.00 0.00 0.00 0.00 0.00 0.00 0.00 0.00 0.01 0.00 0.00 0.00 0.01 0.01
0.00 0.00 0.01 0.01 0.01 0.00 0.00 0.00 0.00 0.00 0.00 0.00 0.01 0.02 0.02 0.01 0.01 0.01 0.00 0.00 0.00 0.00 0.00 0.00 0.00 0.00 0.00 0.00 0.00 0.01 0.01 0.01 0.00 0.00 0.00 0.00 0.00 0.00 0.00 0.00 0.00 0.00 0.00 0.00 0.00 0.00 0.00 0.00 0.00 0.00 0.00 0.01 0.01 0.01
0.00 0.00 0.01 0.00 0.00 0.00 0.00 0.00 0.00 0.00 0.01 0.01 0.01 0.01 0.00 0.00 0.00 0.00 0.00 0.00 0.00 0.00 0.00 0.00 0.00 0.00 0.00 0.00 0.00 0.00 0.00 0.00 0.00 0.00 0.00 0.00 0.00 0.00 0.00 0.00 0.00 0.00 0.00 0.00 0.00 0.00 0.00 0.00 0.00 0.00 0.00 0.01 0.01 0.01
0.00 0.00 0.01 0.01 0.00 0.01 0.01 0.01 0.01 0.01 0.01 0.01 0.01 0.01 0.01 0.01 0.01 0.01 0.02 0.02 0.01 0.00 0.00 0.00 0.00 0.00 0.00 0.00 0.00 0.00 0.00 0.00 0.00 0.00 0.00 0.00 0.00 0.00 0.00 0.00 0.00 0.00 0.00 0.00 0.00 0.00 0.00 0.00 0.00 0.00 0.00 0.00 0.00 0.00
0.00 0.00 0.00 0.00 0.01 0.01 0.01 0.01 0.01 0.01 0.01 0.01 0.01 0.01 0.01 0.01 0.02 0.02 0.02 0.01 0.01 0.00 0.00 0.00 0.00 0.00 0.00 0.00 0.00 0.00 0.00 0.00 0.00 0.00 0.00 0.00 0.00 0.00 0.00 0.00 0.00 0.00 0.00 0.00 0.00 0.00 0.00 0.00 0.00 0.00 0.00 0.00 0.00 0.00
0.00 0.01 0.01 0.00 0.01 0.01 0.01 0.01 0.01 0.01 0.01 0.02 0.02 0.02 0.02 0.02 0.02 0.02 0.02 0.01 0.01 0.01 0.00 0.01 0.00 0.00 0.00 0.00 0.00 0.00 0.00 0.00 0.00 0.00 0.00 0.00 0.00 0.00 0.00 0.00 0.00 0.00 0.00 0.00 0.01 0.01 0.01 0.01 0.00 0.00 0.00 0.00 0.00 0.00
0.00 0.00 0.01 0.00 0.00 0.01 0.01 0.01 0.01 0.01 0.01 0.02 0.02 0.02 0.02 0.02 0.02 0.02 0.02 0.02 0.02 0.02 0.02 0.02 0.01 0.01 0.00 0.00 0.00 0.00 0.00 0.00 0.00 0.00 0.00 0.00 0.00 0.00 0.00 0.00 0.00 0.00 0.00 0.00 0.00 0.01 0.02 0.01 0.01 0.01 0.00 0.00 0.00 0.00
0.00 0.00 0.00 0.00 0.00 0.00 0.00 0.00 0.01 0.01 0.01 0.02 0.02 0.02 0.02 0.02 0.02 0.02 0.02 0.02 0.02 0.02 0.02 0.02 0.02 0.01 0.00 0.00 0.00 0.00 0.00 0.00 0.00 0.00 0.00 0.00 0.00 0.00 0.00 0.00 0.00 0.00 0.00 0.00 0.00 0.00 0.00 0.00 0.00 0.00 0.00 0.00 0.00 0.00
0.00 0.00 0.00 0.00 0.00 0.00 0.00 0.00 0.00 0.00 0.01 0.01 0.01 0.01 0.01 0.01 0.02 0.01 0.01 0.00 0.01 0.01 0.01 0.01 0.00 0.00 0.00 0.00 0.00 0.00 0.00 0.00 0.00 0.00 0.00 0.00 0.00 0.00 0.00 0.00 0.00 0.00 0.00 0.00 0.00 0.00 0.00 0.00 0.00 0.00 0.00 0.00 0.00 0.00
0.00 0.00 0.00 0.00 0.00 0.00 0.00 0.00 0.00 0.00 0.00 0.00 0.00 0.00 0.00 0.00 0.00 0.00 0.00 0.00 0.00 0.00 0.00 0.00 0.00 0.00 0.00 0.00 0.00 0.00 0.00 0.00 0.00 0.00 0.00 0.00 0.00 0.00 0.00 0.00 0.00 0.00 0.00 0.00 0.00 0.00 0.00 0.00 0.00 0.00 0.00 0.00 0.00 0.00
MSLP
1030.63 1030.38 1030.10 1029.85 1029.60 1029.28 1028.96 1028.47 1027.95 1027.46 1027.07 1026.66 1026.12 1025.76 1025.42 1025.07 1025.03 1025.17 1025.78 1025.92 1025.80 1025.55 1025.53 1025.74 1025.56 1025.41 1025.34 1025.75 1025.70 1024.91 1024.33 1023.82 1022.88 1022.37 1022.43 1022.43 1022.00 1021.86 1022.03 1022.99 1023.02 1023.11 1022.83 1021.62 1021.05 1020.68 1021.97 1023.20 1022.79 1023.85 1026.09 1025.75 1025.53 1025.12
1030.36 1030.29 1030.08 1029.88 1029.63 1029.28 1028.92 1028.56 1028.07 1027.49 1027.08 1026.65 1026.24 1025.78 1025.52 1025.25 1025.19 1025.25 1025.71 1026.05 1026.05 1025.80 1025.83 1025.81 1025.83 1025.61 1025.49 1025.83 1026.11 1026.25 1026.25 1025.76 1025.11 1024.35 1023.98 1023.47 1023.10 1023.17 1023.72 1024.00 1025.02 1025.90 1026.23 1025.48 1024.78 1023.94 1024.50 1024.99 1025.89 1026.84 1026.94 1026.83 1026.47 1026.00
1029.93 1029.96 1029.85 1029.65 1029.32 1028.99 1028.66 1028.42 1028.00 1027.53 1027.02 1026.62 1026.20 1025.85 1025.51 1025.23 1025.33 1025.42 1025.95 1026.47 1026.39 1026.15 1025.94 1025.91 1025.89 1026.05 1025.91 1026.28 1026.36 1026.47 1026.57 1026.29 1025.65 1025.62 1024.97 1024.57 1024.49 1024.69 1024.93 1025.65 1026.46 1027.23 1027.75 1027.28 1026.45 1026.02 1025.83 1025.83 1026.48 1026.98 1027.29 1027.38 1026.87 1026.18
1029.54 1029.48 1029.39 1029.29 1029.10 1028.77 1028.28 1027.96 1027.70 1027.36 1026.96 1026.46 1026.05 1025.76 1025.64 1025.50 1025.39 1025.39 1025.94 1026.38 1026.45 1026.52 1026.04 1025.89 1025.85 1025.98 1026.27 1026.40 1026.33 1026.28 1026.26 1026.40 1026.20 1025.88 1025.62 1025.49 1025.68 1026.31 1026.47 1026.94 1027.53 1028.17 1028.55 1028.44 1027.74 1027.09 1026.55 1026.61 1026.74 1027.17 1027.25 1027.31 1026.79 1026.25
1029.03 1028.94 1028.80 1028.63 1028.57 1028.51 1027.86 1027.61 1027.48 1027.13 1026.79 1026.38 1025.93 1025.62 1025.43 1025.35 1025.60 1025.70 1025.85 1026.30 1026.24 1026.69 1026.23 1025.96 1026.09 1026.34 1026.54 1026.40 1026.17 1026.16 1026.18 1026.35 1026.09 1025.97 1026.13 1026.65 1027.21 1027.62 1028.25 1028.39 1028.05 1028.53 1028.91 1029.16 1028.42 1028.70 1029.19 1028.05 1027.90 1028.43 1028.11 1027.51 1027.06 1026.31
1028.34 1028.24 1028.09 1028.07 1027.89 1027.89 1027.68 1027.16 1027.14 1026.77 1026.47 1026.11 1025.58 1025.33 1025.19 1025.09 1025.50 1025.75 1025.93 1026.05 1026.15 1026.24 1026.38 1026.34 1026.46 1026.57 1026.57 1026.38 1026.22 1026.11 1026.07 1026.08 1026.07 1026.02 1026.93 1027.80 1028.53 1028.52 1028.42 1028.30 1027.96 1028.54 1029.14 1029.55 1029.29 1029.38 1029.71 1029.19 1028.90 1028.83 1028.56 1028.03 1027.42 1026.68
1027.38 1027.84 1027.62 1027.52 1027.39 1027.39 1027.27 1026.97 1026.70 1026.28 1026.02 1025.81 1025.29 1025.01 1024.97 1025.17 1025.58 1025.74 1025.90 1025.99 1025.90 1026.13 1026.50 1026.49 1026.44 1026.74 1027.05 1026.83 1026.79 1026.61 1026.40 1026.16 1026.12 1026.63 1027.23 1027.93 1028.71 1028.83 1028.66 1027.98 1027.51 1028.68 1029.60 1030.21 1030.36 1030.68 1029.94 1029.64 1029.13 1029.18 1028.93 1028.01 1027.21 1026.25
1026.55 1026.74 1026.97 1026.90 1026.68 1026.55 1026.55 1026.41 1026.21 1025.83 1025.63 1025.29 1025.00 1024.93 1024.87 1025.20 1025.55 1025.91 1026.14 1026.06 1026.04 1026.48 1026.79 1026.94 1026.60 1027.18 1027.50 1027.30 1027.12 1027.24 1026.71 1026.45 1026.50 1026.87 1027.47 1027.77 1028.89 1029.18 1028.14 1026.97 1028.01 1029.10 1030.07 1030.50 1030.76 1030.99 1030.45 1030.01 1029.79 1029.09 1028.44 1027.70 1026.66 1025.60
1025.95 1025.93 1026.08 1026.08 1026.08 1025.77 1025.80 1025.76 1025.70 1025.36 1025.21 1025.01 1025.03 1024.88 1025.44 1025.79 1026.00 1026.09 1025.89 1026.14 1026.29 1026.81 1026.91 1027.35 1027.19 1027.47 1027.85 1027.96 1027.84 1027.64 1027.39 1026.93 1027.02 1026.89 1027.20 1027.70 1027.91 1027.31 1025.88 1026.78 1027.91 1028.64 1029.22 1029.70 1030.42 1030.63 1030.57 1030.34 1029.48 1028.79 1028.11 1027.25 1026.46 1025.13
1025.10 1025.24 1025.35 1025.37 1025.47 1025.36 1025.29 1025.24 1025.18 1024.89 1024.75 1024.97 1025.10 1025.58 1025.59 1025.88 1025.85 1026.07 1025.82 1026.21 1026.40 1027.23 1027.17 1027.30 1027.98 1028.19 1028.47 1028.29 1028.21 1028.13 1027.99 1027.61 1027.24 1027.39 1027.49 1027.35 1026.07 1025.19 1025.67 1026.45 1027.45 1028.49 1029.31 1030.05 1030.50 1030.14 1030.05 1029.65 1029.15 1028.36 1027.76 1027.17 1026.36 1025.15
1024.24 1024.40 1024.63 1024.44 1024.62 1024.58 1024.59 1024.65 1024.64 1024.37 1024.72 1025.13 1025.56 1025.99 1026.17 1026.04 1025.95 1025.90 1025.92 1026.12 1026.61 1027.05 1027.09 1027.66 1028.10 1028.55 1029.30 1028.97 1028.84 1028.93 1028.44 1028.33 1028.00 1027.65 1027.42 1026.59 1025.47 1024.61 1025.42 1026.78 1027.95 1029.01 1029.43 1029.73 1030.05 1030.06 1030.06 1029.71 1029.02 1028.17 1027.12 1026.43 1025.74 1024.70
1023.32 1023.45 1023.74 1023.56 1023.80 1023.96 1023.94 1024.08 1024.27 1024.54 1024.78 1025.09 1025.57 1026.05 1026.21 1026.11 1026.03 1026.02 1025.69 1026.33 1026.29 1025.93 1027.10 1027.87 1028.60 1028.86 1029.74 1029.82 1029.49 1029.63 1029.06 1028.90 1028.05 1028.11 1027.65 1025.68 1023.56 1024.24 1025.43 1026.78 1027.88 1028.75 1029.43 1029.57 1029.48 1029.71 1029.63 1029.35 1028.81 1028.17 1027.25 1026.22 1025.34 1024.24
1022.28 1022.50 1022.74 1022.55 1022.97 1023.04 1023.18 1023.56 1023.78 1024.07 1025.11 1025.89 1026.26 1026.26 1026.37 1026.37 1026.07 1025.35 1024.82 1024.91 1024.97 1024.98 1026.54 1027.77 1028.92 1029.49 1030.22 1030.25 1030.15 1029.91 1029.58 1028.85 1028.31 1027.67 1025.62 1023.41 1023.09 1024.08 1025.61 1026.78 1027.86 1028.65 1029.28 1029.58 1029.37 1029.04 1028.97 1028.82 1028.30 1027.64 1026.82 1025.74 1025.02 1024.01
1021.22 1021.56 1021.69 1021.68 1021.87 1022.16 1022.43 1022.77 1023.03 1024.20 1024.63 1025.60 1026.14 1026.33 1025.80 1024.90 1024.02 1022.68 1022.70 1022.96 1023.52 1024.02 1025.55 1026.52 1028.32 1029.53 1030.03 1030.15 1030.24 1029.95 1029.39 1029.08 1027.81 1026.33 1023.23 1021.92 1022.48 1023.79 1025.35 1026.63 1027.53 1028.00 1028.50 1028.78 1028.60 1028.52 1028.49 1028.31 1027.90 1027.21 1026.44 1025.53 1024.85 1024.04
1020.28 1020.56 1020.72 1020.76 1020.95 1021.41 1021.63 1021.89 1022.24 1023.46 1024.27 1025.00 1025.58 1024.50 1023.78 1021.70 1021.66 1021.89 1022.65 1023.42 1024.48 1025.14 1025.73 1027.15 1028.46 1028.91 1029.64 1029.99 1029.97 1029.54 1029.10 1027.37 1025.38 1022.60 1021.19 1020.88 1022.04 1023.63 1025.20 1026.29 1027.01 1027.52 1028.19 1028.51 1028.40 1027.92 1027.56 1027.71 1027.51 1026.82 1026.05 1025.25 1024.78 1024.17
1019.34 1019.67 1019.57 1019.56 1019.80 1020.03 1020.19 1020.43 1021.89 1022.92 1023.28 1023.61 1023.49 1022.52 1021.99 1022.26 1021.57 1022.19 1022.89 1023.63 1024.54 1025.07 1025.66 1026.34 1027.72 1028.61 1028.55 1028.68 1029.02 1027.41 1026.48 1023.75 1021.13 1020.80 1020.55 1021.17 1022.49 1023.63 1024.75 1025.63 1026.36 1026.98 1027.46 1027.78 1027.86 1027.75 1027.45 1026.97 1027.03 1026.62 1025.90 1025.23 1024.85 1024.42
1018.25 1017.84 1017.91 1018.28 1018.44 1018.63 1018.74 1020.12 1021.30 1021.77 1021.75 1021.68 1020.84 1020.24 1020.36 1020.51 1020.79 1021.10 1021.88 1022.98 1024.11 1024.60 1024.99 1025.83 1026.56 1026.74 1027.81 1027.36 1026.26 1024.77 1022.79 1020.32 1019.68 1020.10 1020.62 1021.29 1022.37 1023.48 1024.60 1025.55 1026.10 1026.59 1027.01 1027.24 1027.45 1027.35 1027.07 1026.79 1026.60 1026.34 1025.74 1025.24 1024.97 1024.73
1016.56 1016.48 1016.86 1017.02 1017.16 1017.63 1018.48 1019.03 1019.82 1019.97 1019.96 1019.77 1020.31 1019.80 1020.49 1020.58 1020.92 1021.56 1022.22 1022.80 1023.45 1023.74 1024.13 1024.33 1024.90 1025.59 1024.75 1023.59 1021.79 1020.29 1020.04 1020.33 1020.81 1020.96 1021.21 1021.70 1022.63 1023.54 1024.33 1025.03 1025.55 1026.01 1026.42 1026.63 1026.86 1026.91 1026.78 1026.51 1026.13 1025.76 1025.43 1025.11 1024.87 1024.73
1015.17 1015.59 1015.69 1015.91 1016.16 1017.27 1018.23 1018.95 1019.22 1019.37 1019.08 1019.55 1020.16 1020.49 1020.68 1021.08 1021.56 1021.71 1022.16 1022.73 1023.07 1023.07 1023.42 1023.85 1023.62 1022.64 1021.00 1019.82 1019.19 1019.10 1019.48 1019.68 1020.32 1021.18 1021.93 1022.57 1023.03 1023.53 1024.18 1024.84 1025.23 1025.63 1026.00 1026.17 1026.38 1026.23 1026.02 1025.97 1025.69 1025.39 1025.16 1024.94 1024.69 1024.55
1014.16 1014.30 1014.47 1014.82 1015.87 1016.99 1017.97 1018.99 1019.50 1019.37 1019.56 1019.72 1020.33 1020.71 1021.13 1021.62 1022.15 1022.40 1022.79 1023.21 1023.37 1023.38 1023.33 1022.45 1020.31 1019.09 1019.27 1019.22 1019.32 1019.25 1019.42 1019.92 1020.57 1021.55 1022.13 1022.87 1023.40 1023.85 1024.35 1024.72 1024.99 1025.26 1025.63 1025.84 1026.02 1025.74 1025.80 1025.63 1025.38 1025.18 1024.94 1024.82 1024.74 1024.68
1013.90 1014.35 1014.52 1014.89 1015.74 1016.42 1017.61 1018.92 1019.58 1019.89 1020.29 1020.70 1021.38 1021.69 1022.41 1022.86 1023.06 1023.22 1023.45 1023.58 1023.55 1022.57 1021.23 1019.81 1019.34 1019.53 1019.59 1019.76 1019.97 1019.93 1020.00 1020.26 1020.30 1020.57 1020.93 1022.01 1023.01 1023.68 1024.25 1024.69 1025.04 1025.28 1025.40 1025.48 1025.50 1025.40 1025.09 1025.17 1025.14 1025.16 1025.04 1024.94 1024.92 1024.87
1014.25 1014.45 1015.07 1015.44 1016.43 1017.61 1018.96 1020.25 1020.39 1020.84 1021.32 1021.85 1022.15 1022.39 1022.88 1023.42 1023.56 1023.61 1023.57 1023.36 1022.23 1020.76 1020.26 1019.98 1019.94 1020.12 1020.09 1020.26 1020.34 1020.47 1020.45 1020.61 1020.78 1020.94 1021.26 1021.82 1022.92 1023.65 1024.10 1024.45 1024.97 1025.10 1025.21 1025.24 1025.26 1025.13 1025.02 1025.07 1025.15 1025.21 1025.17 1025.15 1025.08 1025.07
1014.55 1014.95 1015.69 1016.37 1017.41 1018.64 1020.91 1021.23 1021.37 1021.69 1021.91 1022.42 1022.72 1022.82 1023.16 1023.66 1023.97 1024.17 1023.56 1022.50 1021.40 1021.21 1021.29 1021.21 1021.15 1021.09 1020.95 1020.97 1021.11 1021.15 1021.12 1021.07 1021.17 1021.40 1021.64 1022.31 1022.83 1023.32 1023.85 1024.41 1024.82 1025.13 1025.31 1025.33 1025.30 1025.12 1025.07 1025.03 1025.06 1025.25 1025.32 1025.31 1025.29 1025.26
1015.17 1016.02 1016.84 1017.94 1018.71 1020.49 1021.48 1021.92 1022.28 1022.60 1022.76 1022.89 1022.99 1022.91 1023.41 1024.06 1024.46 1024.28 1023.39 1022.20 1021.77 1021.80 1021.84 1021.96 1021.92 1021.65 1021.58 1021.54 1021.44 1021.54 1021.76 1021.68 1021.84 1022.19 1022.58 1022.94 1023.41 1024.01 1024.31 1024.72 1025.14 1025.40 1025.57 1025.45 1025.37 1025.28 1025.29 1025.27 1025.20 1025.40 1025.51 1025.54 1025.52 1025.49
1016.38 1017.73 1018.06 1019.57 1020.47 1021.65 1022.15 1022.41 1022.93 1023.21 1023.25 1023.01 1023.21 1023.13 1023.64 1024.30 1024.41 1024.10 1023.37 1022.68 1022.52 1022.53 1022.73 1022.74 1022.59 1022.49 1022.32 1022.00 1021.92 1022.18 1022.49 1022.41 1022.51 1022.88 1023.52 1023.65 1024.02 1024.64 1025.07 1025.51 1025.63 1025.64 1025.83 1025.66 1025.53 1025.48 1025.53 1025.59 1025.64 1025.74 1025.80 1025.79 1025.74 1025.82
1018.13 1019.72 1020.25 1020.20 1021.13 1021.72 1022.38 1023.02 1023.12 1023.12 1023.12 1023.21 1023.22 1023.67 1024.05 1024.22 1024.15 1023.61 1023.51 1023.76 1023.63 1023.71 1023.82 1023.73 1023.49 1023.05 1022.71 1022.61 1022.58 1022.84 1023.01 1023.18 1023.29 1023.62 1024.03 1024.18 1024.46 1024.77 1025.28 1025.63 1025.61 1025.50 1025.56 1025.52 1025.50 1025.53 1025.62 1025.73 1025.87 1026.02 1026.03 1026.01 1025.63 1026.04
1020.04 1021.03 1021.64 1021.48 1021.35 1021.98 1022.51 1022.64 1022.73 1023.09 1023.29 1023.32 1023.41 1023.84 1023.99 1023.92 1023.59 1023.85 1023.93 1024.40 1024.58 1024.56 1024.62 1024.40 1024.14 1023.83 1023.47 1023.29 1023.38 1023.62 1023.82 1024.04 1024.28 1024.47 1024.42 1024.53 1024.94 1025.34 1025.52 1025.59 1025.50 1025.23 1025.22 1025.39 1025.42 1025.38 1025.49 1025.69 1025.86 1026.00 1026.10 1026.24 1026.31 1026.40
1022.53 1022.79 1022.98 1022.78 1022.57 1022.63 1023.06 1023.52 1023.72 1023.88 1023.94 1023.86 1023.74 1023.70 1023.62 1023.76 1024.12 1024.41 1024.63 1024.88 1025.03 1024.97 1024.89 1024.78 1024.64 1024.40 1024.13 1024.14 1024.25 1024.53 1024.82 1025.02 1025.09 1025.11 1025.13 1025.44 1025.67 1025.78 1025.75 1025.66 1025.48 1025.23 1025.30 1025.37 1025.39 1025.43 1025.48 1025.60 1025.77 1025.96 1026.12 1026.25 1026.40 1026.56
1023.82 1023.92 1023.84 1023.94 1023.91 1024.21 1024.90 1025.13 1025.16 1025.25 1025.31 1024.89 1024.53 1024.00 1023.96 1024.33 1025.04 1025.26 1025.21 1025.22 1025.11 1025.05 1024.89 1024.82 1024.90 1024.92 1024.98 1025.08 1025.21 1025.33 1025.32 1025.56 1025.73 1025.93 1025.95 1026.07 1026.16 1025.97 1025.96 1025.96 1025.86 1025.65 1025.51 1025.38 1025.10 1025.23 1025.39 1025.50 1025.68 1025.92 1026.14 1026.31 1026.53 1026.85
1025.26 1025.27 1025.27 1025.53 1025.79 1026.08 1026.38 1026.49 1026.33 1026.21 1025.96 1025.66 1025.40 1025.00 1024.80 1025.20 1025.76 1025.94 1025.85 1025.72 1025.55 1025.51 1025.58 1025.54 1025.56 1025.53 1025.62 1025.81 1025.92 1026.01 1026.12 1026.30 1026.56 1026.59 1026.51 1026.45 1026.41 1026.22 1026.23 1026.14 1026.10 1025.96 1025.87 1025.77 1025.66 1025.57 1025.35 1025.56 1025.49 1026.17 1026.49 1026.70 1026.85 1027.12
1026.42 1026.53 1026.95 1027.23 1027.47 1027.42 1027.31 1027.21 1026.99 1026.72 1026.40 1026.21 1026.06 1026.11 1025.87 1025.97 1026.26 1026.66 1026.80 1026.75 1026.54 1026.33 1026.14 1026.09 1026.11 1026.37 1026.46 1026.65 1026.74 1026.69 1026.49 1026.35 1026.47 1026.48 1026.38 1026.24 1026.18 1026.12 1026.10 1026.12 1026.17 1026.11 1026.02 1025.97 1025.98 1025.99 1026.09 1026.26 1026.44 1026.62 1026.82 1026.97 1027.09 1027.11
1028.07 1028.82 1028.90 1029.22 1029.08 1028.47 1028.19 1028.13 1027.90 1027.64 1027.39 1027.25 1027.27 1027.13 1026.85 1026.67 1027.10 1027.66 1028.34 1028.14 1027.67 1027.42 1027.22 1027.42 1027.37 1027.33 1027.47 1027.46 1027.39 1027.24 1026.58 1026.68 1026.56 1026.53 1026.38 1026.05 1025.83 1026.00 1026.21 1026.30 1026.50 1026.29 1026.05 1026.06 1026.18 1026.33 1026.54 1026.63 1026.73 1026.83 1026.97 1027.06 1027.09 1027.15
1029.72 1029.93 1030.23 1030.69 1030.43 1030.25 1030.01 1029.88 1029.76 1029.32 1028.86 1029.25 1028.99 1028.97 1028.88 1028.83 1028.76 1029.03 1029.27 1029.44 1029.06 1028.88 1028.69 1028.59 1028.33 1028.09 1027.83 1027.71 1027.51 1027.10 1026.73 1026.70 1026.46 1024.76 1024.74 1024.60 1024.62 1024.96 1025.85 1026.05 1026.23 1025.92 1025.86 1025.99 1026.18 1026.40 1026.58 1026.53 1026.51 1026.57 1026.68 1026.74 1026.68 1026.64
Thickness
5486 5484 5481 5479 5474 5470 5466 5465 5462 5459 5456 5452 5449 5443 5440 5436 5430 5424 5415 5408 5405 5400 5395 5387 5385 5381 5379 5367 5368 5368 5373 5367 5371 5368 5364 5351 5358 5363 5364 5335 5341 5354 5362 5390 5394 5429 5441 5356 5377 5391 5348 5354 5359 5365
5479 5475 5472 5470 5467 5463 5457 5455 5454 5452 5448 5445 5442 5437 5432 5429 5424 5419 5413 5403 5398 5397 5393 5385 5380 5376 5372 5365 5361 5349 5350 5336 5351 5355 5348 5348 5355 5350 5338 5369 5323 5346 5313 5335 5344 5368 5340 5342 5335 5329 5333 5334 5342 5346
5473 5468 5464 5463 5461 5459 5453 5448 5446 5444 5441 5437 5434 5430 5426 5422 5417 5412 5405 5396 5393 5390 5390 5385 5382 5371 5367 5360 5356 5358 5343 5339 5347 5340 5346 5347 5347 5335 5346 5338 5314 5300 5289 5308 5313 5317 5319 5326 5325 5325 5324 5322 5328 5337
5466 5462 5459 5456 5453 5450 5448 5442 5439 5437 5434 5431 5427 5423 5418 5413 5409 5406 5398 5391 5387 5380 5388 5386 5375 5370 5362 5357 5354 5351 5347 5340 5337 5339 5342 5344 5346 5318 5328 5313 5309 5298 5287 5291 5300 5306 5312 5314 5318 5313 5310 5312 5319 5324
5460 5456 5454 5451 5446 5442 5440 5436 5431 5430 5428 5424 5419 5415 5412 5406 5400 5397 5392 5384 5380 5378 5382 5380 5369 5364 5357 5354 5353 5349 5345 5338 5339 5341 5339 5334 5317 5312 5290 5289 5299 5288 5291 5303 5321 5289 5277 5292 5294 5290 5290 5297 5302 5309
5453 5449 5446 5443 5440 5435 5431 5429 5423 5422 5419 5417 5415 5410 5404 5400 5394 5391 5388 5379 5374 5370 5368 5375 5360 5354 5352 5351 5349 5346 5343 5339 5339 5337 5319 5305 5288 5303 5312 5316 5297 5284 5278 5274 5281 5275 5268 5269 5270 5273 5275 5277 5282 5288
5448 5440 5437 5436 5432 5427 5422 5418 5415 5413 5411 5408 5407 5404 5397 5390 5385 5383 5382 5375 5370 5364 5359 5363 5362 5348 5341 5342 5339 5338 5335 5334 5333 5321 5312 5305 5295 5290 5290 5314 5305 5283 5273 5266 5261 5252 5262 5260 5265 5255 5253 5261 5268 5273
5442 5436 5430 5429 5426 5421 5416 5410 5406 5405 5403 5402 5399 5395 5388 5380 5375 5371 5366 5363 5361 5355 5347 5347 5357 5348 5331 5331 5337 5323 5328 5326 5322 5314 5306 5304 5285 5277 5295 5305 5281 5272 5261 5256 5251 5247 5252 5250 5245 5246 5249 5251 5254 5258
5433 5428 5424 5422 5418 5413 5409 5403 5399 5397 5394 5392 5389 5385 5377 5368 5365 5362 5359 5355 5351 5349 5348 5337 5353 5360 5321 5316 5314 5318 5312 5325 5313 5311 5304 5295 5291 5297 5321 5296 5278 5271 5265 5261 5249 5242 5237 5234 5239 5242 5242 5242 5244 5248
5425 5420 5415 5411 5407 5400 5400 5395 5392 5388 5386 5383 5379 5371 5367 5360 5357 5353 5351 5347 5340 5330 5327 5338 5313 5332 5312 5309 5307 5309 5299 5306 5312 5302 5289 5288 5309 5304 5292 5284 5275 5264 5252 5240 5234 5242 5235 5234 5233 5231 5229 5228 5228 5231
5417 5412 5405 5403 5397 5393 5392 5388 5384 5380 5378 5371 5367 5363 5353 5350 5349 5341 5345 5344 5330 5336 5327 5316 5311 5318 5293 5309 5302 5286 5286 5283 5295 5294 5289 5297 5303 5304 5279 5267 5254 5244 5238 5232 5227 5224 5219 5218 5217 5218 5220 5219 5217 5217
5409 5403 5397 5396 5389 5385 5382 5378 5372 5367 5367 5361 5354 5348 5342 5339 5335 5341 5339 5322 5322 5351 5312 5314 5303 5294 5282 5278 5283 5272 5279 5269 5289 5260 5267 5295 5313 5286 5268 5255 5246 5235 5225 5222 5218 5213 5209 5207 5205 5204 5205 5205 5205 5205
5401 5397 5393 5390 5381 5377 5373 5367 5361 5358 5351 5345 5339 5338 5331 5325 5337 5337 5359 5346 5334 5324 5300 5291 5291 5281 5267 5264 5259 5262 5263 5272 5256 5257 5286 5307 5293 5272 5256 5241 5235 5224 5212 5207 5207 5205 5200 5196 5195 5192 5193 5193 5191 5191
5397 5392 5387 5383 5378 5369 5365 5359 5355 5346 5342 5339 5333 5341 5333 5338 5332 5353 5359 5361 5333 5322 5305 5300 5274 5274 5256 5257 5242 5255 5251 5236 5250 5251 5292 5303 5282 5265 5243 5229 5222 5221 5209 5203 5201 5197 5190 5185 5182 5183 5182 5181 5177 5175
5389 5384 5380 5378 5369 5361 5356 5352 5348 5340 5332 5331 5317 5341 5333 5353 5342 5338 5325 5317 5305 5299 5292 5277 5260 5261 5246 5242 5230 5234 5232 5244 5261 5295 5300 5294 5269 5250 5233 5219 5213 5208 5197 5190 5188 5186 5182 5175 5170 5171 5171 5170 5165 5161
5380 5376 5378 5370 5364 5360 5357 5351 5340 5332 5327 5323 5323 5336 5334 5327 5338 5317 5312 5308 5290 5287 5280 5274 5252 5246 5253 5239 5226 5240 5249 5266 5299 5277 5281 5262 5247 5235 5225 5214 5206 5198 5189 5183 5177 5173 5171 5165 5161 5159 5158 5156 5152 5147
5374 5382 5375 5368 5364 5360 5356 5343 5333 5329 5328 5328 5338 5341 5342 5339 5341 5330 5315 5302 5284 5286 5286 5263 5260 5265 5213 5225 5226 5239 5256 5289 5284 5268 5256 5250 5238 5225 5212 5201 5194 5187 5179 5172 5164 5161 5159 5154 5148 5146 5146 5143 5139 5134
5379 5376 5371 5367 5363 5358 5347 5342 5334 5330 5334 5339 5335 5337 5319 5319 5316 5306 5293 5284 5279 5277 5265 5264 5236 5235 5247 5256 5267 5271 5261 5255 5243 5243 5240 5230 5220 5209 5200 5192 5185 5177 5171 5163 5154 5149 5144 5139 5141 5141 5134 5132 5128 5123
5376 5372 5369 5365 5358 5347 5336 5329 5326 5327 5331 5317 5308 5305 5305 5299 5288 5286 5278 5270 5261 5257 5245 5240 5244 5249 5260 5261 5267 5266 5253 5248 5242 5225 5214 5207 5201 5194 5186 5178 5171 5164 5157 5151 5145 5144 5140 5132 5131 5127 5124 5120 5117 5114
5368 5367 5365 5359 5347 5336 5327 5314 5301 5309 5316 5306 5290 5286 5281 5274 5264 5261 5254 5246 5243 5241 5236 5237 5258 5267 5256 5251 5246 5249 5242 5230 5219 5209 5203 5190 5181 5174 5169 5164 5160 5153 5146 5137 5131 5131 5124 5120 5117 5114 5110 5106 5102 5099
5356 5353 5349 5344 5333 5326 5315 5299 5293 5289 5278 5278 5261 5261 5249 5239 5237 5235 5231 5227 5227 5235 5241 5252 5251 5238 5230 5224 5220 5221 5218 5212 5211 5210 5206 5188 5171 5163 5156 5148 5142 5136 5133 5128 5122 5117 5118 5108 5102 5096 5093 5089 5086 5084
5340 5336 5330 5324 5314 5299 5285 5269 5272 5261 5256 5245 5240 5234 5229 5223 5218 5215 5211 5211 5221 5230 5232 5230 5226 5220 5218 5210 5206 5202 5200 5194 5189 5189 5185 5174 5157 5149 5142 5137 5128 5124 5118 5113 5107 5102 5097 5090 5084 5078 5075 5072 5071 5070
5322 5318 5310 5304 5296 5286 5260 5249 5255 5237 5245 5228 5214 5218 5217 5209 5199 5192 5197 5204 5210 5206 5200 5197 5193 5190 5192 5189 5185 5182 5180 5178 5176 5171 5167 5155 5148 5140 5132 5123 5116 5109 5102 5095 5088 5084 5079 5075 5069 5063 5059 5057 5057 5057
5300 5293 5287 5277 5269 5244 5230 5221 5222 5217 5212 5211 5211 5217 5208 5186 5174 5176 5184 5193 5193 5186 5183 5177 5175 5177 5175 5173 5173 5169 5163 5161 5156 5148 5142 5137 5130 5120 5114 5106 5097 5089 5082 5076 5071 5067 5061 5057 5054 5048 5045 5044 5044 5045
5280 5269 5270 5246 5230 5231 5219 5200 5184 5192 5191 5199 5198 5200 5184 5164 5164 5160 5169 5175 5172 5169 5162 5160 5159 5158 5159 5160 5157 5150 5142 5142 5139 5133 5121 5117 5108 5099 5092 5083 5077 5071 5063 5059 5055 5051 5045 5040 5036 5033 5031 5031 5032 5031
5257 5229 5239 5229 5212 5221 5210 5199 5186 5190 5191 5186 5184 5159 5150 5153 5157 5166 5167 5150 5147 5143 5141 5139 5140 5144 5146 5142 5140 5134 5128 5121 5119 5115 5104 5097 5091 5086 5078 5070 5065 5061 5051 5046 5042 5038 5032 5027 5024 5020 5019 5019 5025 5021
5228 5214 5209 5210 5210 5205 5205 5198 5192 5189 5180 5174 5166 5151 5149 5157 5166 5151 5138 5128 5126 5124 5120 5120 5121 5124 5125 5122 5116 5110 5105 5100 5095 5091 5084 5080 5073 5065 5059 5054 5048 5049 5041 5035 5031 5028 5023 5018 5015 5013 5011 5010 5009 5010
5187 5188 5184 5189 5191 5188 5187 5177 5172 5168 5164 5156 5155 5146 5153 5154 5150 5127 5121 5115 5110 5108 5106 5104 5103 5103 5103 5099 5094 5088 5082 5077 5073 5069 5065 5059 5051 5046 5042 5039 5037 5037 5029 5025 5021 5017 5014 5011 5008 5005 5004 5003 5002 5001
5176 5177 5178 5173 5170 5160 5145 5148 5148 5140 5134 5135 5140 5148 5137 5122 5110 5106 5105 5102 5100 5097 5097 5095 5089 5084 5080 5076 5072 5068 5065 5062 5061 5052 5045 5045 5040 5039 5031 5028 5025 5023 5020 5017 5016 5011 5006 5003 5000 4998 4996 4996 4994 4991
5158 5158 5156 5146 5149 5142 5133 5127 5126 5121 5119 5117 5114 5113 5113 5102 5092 5088 5086 5084 5082 5080 5076 5073 5069 5067 5066 5062 5058 5052 5046 5040 5036 5034 5029 5028 5028 5025 5020 5019 5016 5013 5010 5007 5004 5001 5001 4996 4995 4989 4987 4986 4985 4984
5147 5142 5135 5130 5128 5122 5117 5111 5108 5106 5104 5101 5097 5092 5091 5084 5076 5068 5065 5062 5061 5060 5059 5057 5054 5047 5045 5040 5031 5028 5032 5029 5023 5021 5019 5018 5017 5017 5015 5013 5010 5006 5002 4999 4995 4992 4988 4985 4982 4979 4978 4978 4977 4980
5125 5108 5105 5105 5100 5097 5095 5092 5092 5090 5085 5081 5076 5070 5068 5070 5067 5052 5041 5039 5039 5036 5039 5032 5032 5030 5022 5019 5017 5015 5022 5016 5015 5014 5013 5012 5012 5012 5009 5006 5003 4999 4996 4992 4988 4984 4979 4976 4973 4971 4970 4968 4968 4967
5091 5083 5077 5076 5079 5076 5072 5068 5063 5053 5054 5042 5037 5030 5027 5028 5032 5028 5024 5021 5017 5014 5013 5012 5012 5011 5011 5010 5010 5010 5012 5009 5009 5012 5012 5011 5010 5008 5004 5000 4997 4993 4990 4986 4982 4978 4974 4970 4968 4965 4963 4963 4964 4965